Location: Zagreb
(45.8000°N, 16.0000°E)
Time: 14:02:18
(UTC+02:00)

Vanguard 1 - Pass Details

Date: 11 August 2022
Orbit: 649 x 3832 km, 34.2° (Epoch: 25 September)

Event Time Altitude Azimuth Distance (km) Brightness Sun altitude
Rises 03:42:31 0° 208° (SSW) 5,410 - -18.9°
Reaches altitude 10° 03:46:02 10° 198° (SSW) 4,810 - -18.5°
Exits shadow 03:47:51 15° 193° (SSW) 4,568 12.9 -18.3°
Maximum altitude 03:58:44 34° 140° (SE) 4,305 13.2 -17.0°
Drops below altitude 10° 04:16:53 10° 86° (E) 6,884 15.1 -14.6°
Sets 04:23:14 0° 79° (E) 7,979 15.8 -13.8°
